K5AJS-2 Weather Reports


time (UTC)temp
F
wind
direction
speed
knots
gust
knots
rain 1hr
in
rain 24hr
in
rain mn
in
humidity
%
barometer
mb
20260510142411 79 103 0.9 1.7 0.00 0.00 0.00 85 1013.3
20260510141910 79 100 0.9 0.9 0.00 0.00 0.00 86 1013.2
20260510141412 79 142 0.9 1.7 0.00 0.00 0.00 86 1013.2
20260510140910 78 106 0.9 1.7 0.00 0.00 0.00 87 1013.1
20260510140411 78 61 1.7 6.1 0.00 0.00 0.00 87 1013.2
20260510135911 78 90 0.9 1.7 0.00 0.00 0.00 87 1013.0
20260510135410 78 87 0.9 2.6 0.00 0.00 0.00 87 1012.9
20260510134910 78 90 6.1 9.6 0.00 0.00 0.00 87 1012.8
20260510134410 78 347 3.5 5.2 0.00 0.00 0.00 87 1012.8
20260510133910 78 99 2.6 7.8 0.00 0.00 0.00 88 1012.8
20260510133411 78 109 3.5 5.2 0.00 0.00 0.00 87 1012.7
20260510132910 78 105 2.6 4.3 0.00 0.00 0.00 87 1012.6
20260510132410 78 117 0.9 1.7 0.00 0.00 0.00 88 1012.5
20260510131910 78 85 0.9 0.9 0.00 0.00 0.00 88 1012.5
20260510131410 78 86 0.9 1.7 0.00 0.00 0.00 88 1012.4
20260510130910 78 86 1.7 1.7 0.00 0.00 0.00 88 1012.3
20260510130413 78 86 1.7 1.7 0.00 0.00 0.00 89 1012.2
20260510125911 78 86 1.7 1.7 0.00 0.00 0.00 89 1012.0
20260510125410 77 87 1.7 1.7 0.00 0.00 0.00 90 1011.9
20260510124911 77 174 2.6 5.2 0.00 0.00 0.00 90 1011.8
20260510124412 77 86 0.9 0.9 0.00 0.00 0.00 91 1011.8
20260510123910 77 110 0.9 0.9 0.00 0.00 0.00 91 1011.7
20260510123411 77 46 4.3 7.8 0.00 0.00 0.00 91 1011.7
20260510122911 77 134 0.9 0.9 0.00 0.00 0.00 91 1011.6
20260510122410 77 127 0.9 0.9 0.00 0.00 0.00 92 1011.6
20260510121910 76 118 0.9 0.9 0.00 0.00 0.00 92 1011.5
20260510121411 76 187 2.6 6.1 0.00 0.00 0.00 92 1011.5
20260510120910 76 104 0.9 0.9 0.00 0.00 0.00 92 1011.5
20260510120410 76 52 1.7 2.6 0.00 0.00 0.00 92 1011.4
20260510115911 76 136 0.9 0.9 0.00 0.00 0.00 92 1011.3
20260510115411 76 105 0.9 0.9 0.00 0.00 0.00 92 1011.2
20260510114911 76 78 0.9 0.9 0.00 0.00 0.00 91 1011.1
20260510114411 76 98 0.9 0.9 0.00 0.00 0.00 91 1011.1
20260510113913 76 253 0.9 1.7 0.00 0.00 0.00 91 1011.1
20260510113411 76 250 1.7 1.7 0.00 0.00 0.00 91 1011.1
20260510112911 76 257 0.9 1.7 0.00 0.00 0.00 91 1011.1
20260510112410 76 3 0.9 1.7 0.00 0.00 0.00 91 1011.1
20260510111910 76 263 0.9 1.7 0.00 0.00 0.00 91 1011.1
20260510111411 76 264 1.7 2.6 0.00 0.00 0.00 91 1011.1
20260510110910 76 249 1.7 2.6 0.00 0.00 0.00 91 1011.1
20260510110411 77 160 0.9 0.9 0.00 0.00 0.00 91 1011.1
20260510105911 77 95 0.0 0.0 0.00 0.00 0.00 91 1011.1
20260510105410 77 156 0.9 0.9 0.00 0.00 0.00 91 1011.1
20260510104911 77 147 1.7 1.7 0.00 0.00 0.00 91 1011.0
20260510104411 77 114 0.0 0.9 0.00 0.00 0.00 91 1011.1
20260510103910 76 126 0.9 0.9 0.00 0.00 0.00 91 1011.0
20260510103410 76 116 1.7 1.7 0.00 0.00 0.00 91 1010.9
20260510102910 77 142 0.9 1.7 0.00 0.00 0.00 91 1010.9
20260510102410 77 111 0.9 0.9 0.00 0.00 0.00 91 1011.0
20260510101910 77 157 0.9 1.7 0.00 0.00 0.00 91 1011.0
20260510101410 77 154 0.9 1.7 0.00 0.00 0.00 91 1011.0
20260510100910 77 334 3.5 6.1 0.00 0.00 0.00 91 1011.0
20260510100410 77 136 0.9 1.7 0.00 0.00 0.00 91 1011.0
20260510095911 77 151 0.0 0.9 0.00 0.00 0.00 91 1011.0
20260510095410 77 133 0.9 0.9 0.00 0.00 0.00 91 1011.0
20260510094910 77 131 0.0 0.9 0.00 0.00 0.00 91 1011.0
20260510094410 76 132 0.9 0.9 0.00 0.00 0.00 91 1011.0
20260510093911 76 134 0.0 0.9 0.00 0.00 0.00 91 1011.0
20260510093410 76 134 0.0 0.9 0.00 0.00 0.00 92 1011.0
20260510092911 76 134 0.9 0.9 0.00 0.00 0.00 92 1011.0
20260510092410 76 143 0.9 0.9 0.00 0.00 0.00 92 1011.0
20260510091910 76 139 0.9 0.9 0.00 0.00 0.00 92 1011.0
20260510091410 76 144 0.9 0.9 0.00 0.00 0.00 92 1011.0
20260510090910 76 144 0.9 0.9 0.00 0.00 0.00 92 1010.9
20260510090411 76 139 0.9 0.9 0.00 0.00 0.00 92 1010.9
20260510085910 76 6 0.9 0.9 0.00 0.00 0.00 92 1010.9
20260510085411 76 135 0.9 0.9 0.00 0.00 0.00 91 1010.9
20260510084910 76 137 0.9 1.7 0.00 0.00 0.00 91 1010.8
20260510084410 76 145 1.7 1.7 0.00 0.00 0.00 91 1010.8
20260510083916 76 144 1.7 1.7 0.00 0.00 0.00 91 1010.8
20260510083410 76 144 1.7 1.7 0.00 0.00 0.00 91 1010.7
20260510082911 76 165 2.6 6.1 0.00 0.00 0.00 91 1010.8
20260510082410 76 145 1.7 1.7 0.00 0.00 0.00 91 1010.8
20260510081911 76 139 1.7 1.7 0.00 0.00 0.00 91 1010.7
20260510081411 77 131 1.7 1.7 0.00 0.00 0.00 91 1010.6
20260510080910 77 126 0.9 1.7 0.00 0.00 0.00 91 1010.6
20260510080410 77 126 1.7 2.6 0.00 0.00 0.00 91 1010.6
20260510075912 77 225 2.6 3.5 0.00 0.00 0.00 90 1010.7
20260510075411 77 228 2.6 3.5 0.00 0.00 0.00 90 1010.8
20260510074912 77 230 1.7 4.3 0.00 0.00 0.00 90 1010.7
20260510074410 77 95 0.9 1.7 0.00 0.00 0.00 90 1010.7
20260510073911 77 84 0.9 1.7 0.00 0.00 0.00 90 1010.7
20260510073411 77 204 1.7 4.3 0.00 0.00 0.00 89 1010.7
20260510072911 76 86 0.9 1.7 0.00 0.00 0.00 89 1010.8
20260510072410 77 118 1.7 1.7 0.00 0.00 0.00 89 1010.7
20260510071912 77 118 1.7 6.1 0.00 0.00 0.00 89 1010.7
20260510071411 77 99 1.7 4.3 0.00 0.00 0.00 89 1010.8
20260510070911 77 107 1.7 4.3 0.00 0.00 0.00 89 1010.8
20260510070411 77 115 0.9 3.5 0.00 0.00 0.00 89 1010.9
20260510065910 76 134 0.9 3.5 0.00 0.00 0.00 88 1011.1
20260510065412 76 114 1.7 5.2 0.00 0.00 0.00 88 1011.1
20260510064911 76 124 0.9 3.5 0.00 0.00 0.00 88 1011.1
20260510064410 76 97 0.9 0.9 0.00 0.00 0.00 88 1011.0
20260510063911 76 126 0.9 0.9 0.00 0.00 0.00 88 1011.0
20260510063410 76 159 1.7 2.6 0.00 0.00 0.00 87 1011.1
20260510062910 76 132 0.9 0.9 0.00 0.00 0.00 87 1011.3
20260510062411 77 93 0.9 1.7 0.00 0.00 0.00 87 1011.3
20260510061910 77 148 0.9 4.3 0.00 0.00 0.00 87 1011.4
20260510061411 77 89 0.9 1.7 0.00 0.00 0.00 86 1011.5
20260510060911 77 229 1.7 2.6 0.00 0.00 0.00 86 1011.5
20260510060410 77 240 2.6 4.3 0.00 0.00 0.00 86 1011.7
20260510055910 77 218 0.9 3.5 0.00 0.00 0.00 85 1011.7
20260510055410 77 157 2.6 5.2 0.00 0.00 0.00 85 1011.7
20260510054911 77 198 1.7 4.3 0.00 0.00 0.00 85 1011.8
20260510054411 77 190 1.7 3.5 0.00 0.00 0.00 84 1011.8
20260510053910 77 173 1.7 3.5 0.00 0.00 0.00 84 1011.8
20260510053410 77 153 0.9 1.7 0.00 0.00 0.00 84 1011.8
20260510052910 77 202 1.7 4.3 0.00 0.00 0.00 84 1011.8
20260510052410 77 236 3.5 5.2 0.00 0.00 0.00 84 1011.7
20260510051911 77 243 4.3 5.2 0.00 0.00 0.00 84 1011.7
20260510051410 77 238 3.5 5.2 0.00 0.00 0.00 84 1011.6
20260510050911 77 240 3.5 5.2 0.00 0.00 0.00 84 1011.5
20260510050411 77 235 3.5 4.3 0.00 0.00 0.00 84 1011.4
20260510045911 77 197 3.5 6.1 0.00 0.00 0.05 83 1011.4
20260510045410 77 217 5.2 6.1 0.00 0.00 0.05 83 1011.4
20260510044910 77 211 2.6 7.8 0.00 0.00 0.05 83 1011.4
20260510044410 77 162 0.9 0.9 0.00 0.00 0.05 82 1011.4
20260510043910 77 155 0.9 0.9 0.00 0.00 0.05 81 1011.4
20260510043411 77 157 0.9 0.9 0.00 0.00 0.05 81 1011.3
20260510042910 77 155 0.9 1.7 0.00 0.00 0.05 81 1011.2
20260510042410 77 156 0.9 1.7 0.00 0.00 0.05 81 1011.2
20260510041910 77 158 0.9 1.7 0.00 0.00 0.05 82 1011.3
20260510041411 77 154 0.9 1.7 0.00 0.00 0.05 82 1011.4
20260510040910 77 149 1.7 2.6 0.00 0.00 0.05 83 1011.4
20260510040411 77 171 1.7 1.7 0.00 0.00 0.05 84 1011.5
20260510035911 77 171 1.7 3.5 0.00 0.00 0.05 85 1011.6
20260510035410 77 152 0.9 1.7 0.00 0.00 0.05 85 1011.4
20260510034910 77 94 0.9 1.7 0.00 0.00 0.05 85 1011.2
20260510034411 77 122 0.9 1.7 0.00 0.00 0.05 84 1011.3
20260510033910 78 88 0.9 1.7 0.00 0.00 0.05 83 1011.0
20260510033410 78 88 0.9 1.7 0.00 0.00 0.05 82 1010.8
20260510032910 78 113 0.9 1.7 0.00 0.00 0.05 82 1010.6
20260510032411 77 174 1.7 1.7 0.00 0.00 0.05 81 1010.4
20260510031910 77 174 0.9 1.7 0.00 0.00 0.05 82 1010.2
20260510031410 78 174 1.7 1.7 0.00 0.00 0.05 81 1010.2
20260510030910 78 172 0.9 1.7 0.00 0.00 0.05 81 1010.4
20260510030411 78 175 0.9 1.7 0.00 0.00 0.05 81 1010.3
20260510025910 78 166 0.9 1.7 0.00 0.00 0.05 81 1010.4
20260510025411 78 165 0.9 1.7 0.00 0.00 0.05 81 1010.3
20260510024910 78 150 0.9 0.9 0.00 0.00 0.05 81 1010.2
20260510024411 78 153 0.9 0.9 0.00 0.00 0.05 81 1010.1
20260510023910 78 149 0.9 0.9 0.00 0.00 0.05 79 1010.0
20260510023410 78 143 0.9 1.7 0.00 0.00 0.05 79 1010.1
20260510022910 78 129 0.9 5.2 0.00 0.00 0.05 78 1010.1
20260510022410 78 122 3.5 6.1 0.00 0.00 0.05 79 1010.1
20260510021911 78 129 1.7 6.1 0.00 0.00 0.05 78 1010.0
20260510021411 78 113 1.7 3.5 0.00 0.00 0.05 79 1009.8
20260510020911 78 98 1.7 3.5 0.00 0.00 0.05 79 1009.6
20260510020411 79 109 0.9 3.5 0.00 0.00 0.05 79 1009.5
20260510015910 79 105 0.9 1.7 0.00 0.00 0.05 79 1009.5
20260510015412 79 95 1.7 6.1 0.00 0.00 0.05 77 1009.4
20260510014911 79 86 0.9 1.7 0.00 0.00 0.05 76 1009.3
20260510014411 79 86 0.9 1.7 0.00 0.00 0.05 74 1009.2
20260510013911 79 98 0.9 3.5 0.00 0.00 0.05 73 1009.2
20260510013411 79 175 1.7 4.3 0.00 0.00 0.05 72 1009.1
20260510012912 79 149 0.9 2.6 0.00 0.00 0.05 73 1009.0
20260510012411 79 228 3.5 7.0 0.00 0.00 0.05 74 1008.8
20260510011911 80 228 3.5 7.0 0.00 0.00 0.05 73 1008.8
20260510011411 80 120 2.6 7.0 0.00 0.00 0.05 70 1008.8
20260510010910 80 155 0.9 3.5 0.00 0.00 0.05 68 1009.0
20260510010414 80 184 1.7 3.5 0.00 0.00 0.05 66 1008.8
20260510005911 81 268 0.9 1.7 0.00 0.00 0.05 64 1008.8
20260510005411 81 258 0.9 1.7 0.00 0.00 0.05 62 1008.9
20260510004910 82 266 0.9 1.7 0.00 0.00 0.05 58 1008.9
20260510004410 82 289 0.9 1.7 0.00 0.00 0.05 56 1009.0
20260510003911 83 268 0.9 1.7 0.00 0.00 0.05 56 1009.0
20260510003411 83 267 0.9 1.7 0.00 0.00 0.05 55 1008.9
20260510002911 83 267 0.9 1.7 0.00 0.00 0.05 55 1008.9
20260510002410 83 227 0.9 1.7 0.00 0.00 0.05 54 1008.9
20260510001910 84 241 0.9 1.7 0.00 0.00 0.05 54 1008.8
20260510001412 84 282 1.7 2.6 0.00 0.00 0.05 52 1008.8
20260510000910 84 210 1.7 3.5 0.00 0.00 0.05 50 1008.8
20260510000411 84 231 1.7 4.3 0.00 0.00 0.05 52 1008.8
20260509235910 84 242 1.7 3.5 0.00 0.00 0.05 52 1008.7
20260509235410 84 237 1.7 5.2 0.00 0.00 0.05 51 1008.7
20260509234910 85 225 1.7 3.5 0.00 0.00 0.05 55 1008.6
20260509234410 85 237 2.6 4.3 0.00 0.00 0.05 53 1008.7
20260509233911 85 275 2.6 6.1 0.00 0.00 0.05 56 1008.7
20260509233410 85 245 1.7 2.6 0.00 0.00 0.05 56 1008.7
20260509232910 86 264 1.7 2.6 0.00 0.00 0.05 50 1008.7
20260509232410 86 265 1.7 1.7 0.00 0.00 0.05 48 1008.7
20260509231911 86 263 1.7 1.7 0.00 0.00 0.05 51 1008.7
20260509231410 86 265 1.7 1.7 0.00 0.00 0.05 52 1008.7
20260509230911 86 267 1.7 3.5 0.00 0.00 0.05 52 1008.6
20260509230410 86 274 1.7 2.6 0.00 0.00 0.05 53 1008.6
20260509225910 86 268 1.7 3.5 0.00 0.00 0.05 53 1008.6
20260509225410 86 251 0.9 6.1 0.00 0.00 0.05 53 1008.6
20260509224910 86 269 0.9 1.7 0.00 0.00 0.05 53 1008.7
20260509224412 86 265 1.7 2.6 0.00 0.00 0.05 53 1008.5
20260509223911 86 265 1.7 2.6 0.00 0.00 0.05 53 1008.5
20260509223410 86 263 2.6 5.2 0.00 0.00 0.05 53 1008.6
20260509222910 86 265 1.7 2.6 0.00 0.00 0.05 53 1008.5
20260509222410 86 264 1.7 2.6 0.00 0.00 0.05 53 1008.5
20260509221911 87 246 1.7 2.6 0.00 0.00 0.05 53 1008.6
20260509221411 87 259 1.7 5.2 0.00 0.00 0.05 52 1008.4
20260509220910 87 259 1.7 7.0 0.00 0.00 0.05 52 1008.5
20260509220410 87 264 4.3 9.6 0.00 0.00 0.05 52 1008.4
20260509215911 87 275 1.7 5.2 0.00 0.00 0.05 53 1008.4
20260509215410 87 268 4.3 8.7 0.00 0.00 0.05 53 1008.4
20260509214910 87 264 3.5 7.8 0.00 0.00 0.05 54 1008.4
20260509214411 87 258 1.7 3.5 0.00 0.00 0.05 53 1008.4
20260509213910 87 267 2.6 6.1 0.00 0.00 0.05 52 1008.4
20260509213410 87 269 3.5 7.0 0.00 0.00 0.05 54 1008.4
20260509212910 87 264 2.6 6.1 0.00 0.00 0.05 53 1008.4
20260509212411 87 266 3.5 7.8 0.00 0.00 0.05 54 1008.3
20260509211911 87 272 1.7 5.2 0.00 0.00 0.05 53 1008.4
20260509211410 87 269 4.3 8.7 0.00 0.00 0.05 53 1008.3
20260509210911 87 275 1.7 3.5 0.00 0.00 0.05 53 1008.4
20260509210410 87 256 1.7 2.6 0.00 0.00 0.05 53 1008.4
20260509205911 87 265 1.7 4.3 0.00 0.00 0.05 53 1008.4
20260509205411 88 264 5.2 8.7 0.00 0.00 0.05 54 1008.5
20260509204910 89 273 3.5 9.6 0.00 0.00 0.05 52 1008.5
20260509204411 89 279 1.7 4.3 0.00 0.00 0.05 47 1008.3
20260509203910 89 339 2.6 5.2 0.00 0.00 0.05 47 1008.4
20260509203410 89 310 5.2 8.7 0.00 0.00 0.05 48 1008.4
20260509202911 89 273 3.5 7.8 0.00 0.00 0.05 47 1008.4
20260509202410 89 267 3.5 5.2 0.00 0.00 0.05 48 1008.7
20260509201912 90 268 2.6 4.3 0.00 0.00 0.05 47 1008.6
20260509201410 90 266 4.3 6.1 0.00 0.00 0.05 43 1008.6
20260509200910 89 262 4.3 7.0 0.00 0.00 0.05 45 1008.7
20260509200410 89 264 4.3 6.1 0.00 0.00 0.05 45 1008.8
20260509195910 88 268 2.6 5.2 0.00 0.00 0.05 46 1008.9
20260509195411 89 250 5.2 8.7 0.00 0.00 0.05 49 1008.8
20260509194910 89 337 4.3 7.0 0.00 0.00 0.05 42 1008.8
20260509194411 88 317 4.3 7.8 0.00 0.00 0.05 49 1008.9
20260509193911 88 269 3.5 4.3 0.00 0.00 0.05 47 1009.0
20260509193410 88 266 1.7 3.5 0.00 0.00 0.05 50 1009.0
20260509192910 88 269 2.6 5.2 0.00 0.00 0.05 50 1009.0
20260509192411 88 267 2.6 5.2 0.00 0.00 0.05 48 1009.2
20260509191911 87 264 2.6 5.2 0.00 0.00 0.05 50 1009.2
20260509191411 87 263 2.6 4.3 0.00 0.00 0.05 51 1009.2
20260509190910 88 147 1.7 3.5 0.00 0.00 0.05 50 1009.2
20260509190410 88 214 1.7 4.3 0.00 0.00 0.05 47 1009.2
20260509185911 87 254 2.6 4.3 0.00 0.00 0.05 46 1009.2
20260509185410 87 260 3.5 5.2 0.00 0.00 0.05 48 1009.2
20260509184910 87 262 1.7 4.3 0.00 0.00 0.05 48 1009.3
20260509184410 86 267 1.7 6.1 0.00 0.00 0.05 50 1009.3
20260509183910 87 260 2.6 3.5 0.00 0.00 0.05 51 1009.2
20260509183410 86 266 1.7 2.6 0.00 0.00 0.05 50 1009.2
20260509182910 86 265 1.7 2.6 0.00 0.00 0.05 52 1009.4
20260509182411 86 263 1.7 3.5 0.00 0.00 0.05 51 1009.3
20260509181911 85 263 3.5 5.2 0.00 0.00 0.05 56 1009.4
20260509181410 86 279 2.6 5.2 0.00 0.00 0.05 54 1009.3
20260509180910 85 342 2.6 4.3 0.00 0.00 0.05 56 1009.3
20260509180411 85 293 2.6 5.2 0.00 0.00 0.05 58 1009.5
20260509175911 85 319 2.6 6.1 0.00 0.00 0.05 58 1009.6
20260509175411 84 38 0.9 4.3 0.00 0.00 0.05 59 1009.6
20260509174910 84 26 1.7 2.6 0.00 0.00 0.05 57 1009.6
20260509174411 83 62 0.9 3.5 0.00 0.00 0.05 61 1009.8
20260509173910 83 131 0.9 1.7 0.00 0.00 0.05 64 1009.5
20260509173411 83 137 0.9 1.7 0.00 0.00 0.05 65 1009.4
20260509172910 82 129 0.9 1.7 0.00 0.00 0.05 65 1009.4
20260509172410 82 114 0.9 5.2 0.00 0.00 0.05 68 1009.5
20260509171911 82 126 0.9 0.9 0.00 0.00 0.05 68 1009.6
20260509171411 82 123 0.9 0.9 0.00 0.00 0.05 68 1009.8
20260509170911 82 206 0.9 2.6 0.00 0.00 0.05 70 1009.8
20260509170411 81 110 0.9 0.9 0.00 0.00 0.05 70 1009.6
20260509165911 81 120 0.9 1.7 0.00 0.00 0.05 71 1010.0
20260509165410 81 126 0.9 1.7 0.00 0.00 0.05 72 1010.1
20260509164911 80 125 1.7 1.7 0.00 0.00 0.05 73 1010.0
20260509164411 80 125 0.9 1.7 0.00 0.00 0.05 74 1010.1
20260509163910 80 123 0.9 0.9 0.00 0.00 0.05 75 1010.2
20260509163411 80 124 0.9 0.9 0.00 0.00 0.05 75 1009.9
20260509162911 79 127 0.9 0.9 0.00 0.00 0.05 76 1009.9
20260509162410 79 122 1.7 1.7 0.00 0.00 0.05 76 1009.8
20260509161910 79 118 0.9 0.9 0.00 0.00 0.05 75 1009.8
20260509161411 79 119 0.9 1.7 0.00 0.00 0.05 75 1009.8
20260509160911 78 124 1.7 1.7 0.00 0.00 0.05 75 1009.9
20260509160411 78 120 0.9 0.9 0.00 0.00 0.05 78 1009.8
20260509155911 78 121 0.9 0.9 0.00 0.00 0.05 78 1009.7
20260509155410 78 128 0.9 0.9 0.00 0.00 0.05 80 1009.8
20260509154910 77 97 0.9 0.9 0.00 0.00 0.05 80 1009.7
20260509154410 77 130 0.9 0.9 0.00 0.00 0.05 80 1009.9
20260509153911 78 159 0.9 0.9 0.00 0.00 0.05 79 1010.0
20260509153411 78 130 0.9 0.9 0.00 0.00 0.05 78 1010.2
20260509152911 78 129 0.9 0.9 0.00 0.00 0.05 77 1010.0
20260509152411 78 130 0.9 0.9 0.00 0.00 0.05 77 1010.6
20260509151910 78 130 0.9 1.7 0.00 0.00 0.05 76 1010.6
20260509151410 78 141 0.9 1.7 0.00 0.00 0.05 77 1010.4
20260509150911 78 131 0.9 1.7 0.00 0.00 0.05 77 1010.8
20260509150410 78 133 0.9 0.9 0.00 0.00 0.05 78 1010.6
20260509145911 77 248 5.2 10.4 0.00 0.00 0.05 79 1010.7
20260509145410 77 234 3.5 4.3 0.00 0.00 0.05 79 1010.5
20260509144910 77 180 1.7 7.0 0.00 0.00 0.05 77 1010.5
20260509144410 77 184 3.5 7.8 0.00 0.00 0.05 80 1010.3
20260509143910 77 259 7.0 9.6 0.00 0.00 0.05 79 1010.2
20260509143411 77 259 7.8 9.6 0.00 0.00 0.05 80 1010.2
20260509142911 76 260 4.3 7.0 0.00 0.00 0.05 83 1010.3